Location: Recife
(8.0585°S, 34.8848°W)
Time: 07:09:40
(UTC-03:00)

Vanguard 3 - Pass Details

Date: 20 April 2026
Orbit: 507 x 3205 km, 33.4° (Epoch: 13 May)

Event Time Altitude Azimuth Distance (km) Brightness Sun altitude
Rises 07:59:02 0° 273° (W) 4,651 10.6 36.7°
Reaches altitude 10° 08:01:57 10° 264° (W) 3,997 10.3 37.3°
Maximum altitude 08:12:29 40° 199° (SSW) 3,220 10.3 39.7°
Drops below altitude 10° 08:28:37 10° 135° (SE) 5,978 11.9 43.4°
Sets 08:34:18 0° 128° (SE) 7,134 12.2 44.7°
